Theta_e
290 290 290 290 290 289 288 287 287 288 288 287 286 286 286 286 287 288 290 290 291 294 295 295 295 297 299 301 300 298 298 300 303 307 311 312 312 310
289 290 290 289 287 287 286 286 285 285 287 284 284 283 284 284 286 286 289 290 288 292 293 292 292 293 295 297 299 300 300 299 299 305 306 310 311 309
290 289 288 287 286 286 285 284 284 283 284 283 283 283 284 285 285 285 288 290 290 288 291 291 291 291 292 294 297 299 300 300 300 304 307 309 308 307
288 287 286 286 285 285 284 283 283 282 282 282 282 283 284 285 285 286 288 288 289 289 287 288 289 291 291 292 295 298 298 297 299 300 304 304 303 304
286 286 285 284 284 284 283 282 282 282 281 282 282 282 283 284 285 286 287 288 287 286 287 287 288 289 291 292 294 296 297 295 296 299 301 303 303 303
285 284 284 283 283 282 282 282 281 281 281 281 281 282 283 283 284 285 286 287 286 285 285 285 286 288 290 291 292 295 295 295 295 293 296 299 300 300
284 283 281 281 280 280 280 280 280 280 281 281 281 282 283 282 284 284 285 286 285 285 285 285 286 287 289 290 291 292 294 294 294 295 293 292 292 292
281 280 280 279 279 279 279 279 279 280 281 281 283 282 282 282 282 284 283 284 286 284 285 285 285 285 287 288 289 291 292 293 292 293 293 292 293 294
280 279 279 279 278 279 279 279 280 280 280 281 281 281 281 281 282 282 283 283 283 284 283 284 284 284 285 285 288 290 291 292 291 291 291 291 291 291
279 278 278 278 279 278 280 280 280 279 280 280 281 281 281 281 281 281 282 282 282 283 283 284 284 284 284 285 285 288 290 291 291 291 291 291 291 291
279 279 278 278 278 279 279 279 279 279 279 279 279 280 280 280 280 280 282 282 282 282 282 283 283 284 284 284 285 285 287 289 288 288 288 289 290 290
278 278 278 277 278 278 278 278 278 279 278 278 279 279 280 280 280 280 280 282 283 283 283 283 283 283 285 285 285 284 285 286 288 288 287 287 287 289
278 277 277 277 277 277 276 277 278 277 277 278 278 279 279 280 280 280 280 280 281 282 282 283 284 284 284 285 285 285 285 285 286 286 286 286 286 287
277 276 276 276 276 275 275 275 275 276 277 278 278 279 279 280 280 281 281 281 280 281 282 282 282 283 283 284 284 285 285 285 285 286 286 286 285 285
277 276 275 275 274 274 274 274 274 275 276 277 277 278 279 279 280 281 281 281 281 281 280 281 281 282 282 283 283 284 285 286 285 286 286 286 286 287
276 275 274 274 274 274 274 274 274 273 274 276 276 277 278 279 281 282 283 283 282 282 282 281 282 282 283 283 283 283 283 285 286 286 286 286 285 285
276 275 275 274 274 274 274 273 273 272 274 274 276 277 278 279 280 281 282 283 284 284 285 283 283 282 283 284 284 283 284 284 284 285 284 285 286 286
277 276 275 274 274 274 274 273 273 272 272 273 275 276 277 278 279 280 281 283 284 284 284 283 284 284 284 283 283 286 285 285 284 284 284 285 286 286
277 277 276 275 274 274 273 273 273 271 270 272 273 274 275 277 278 279 280 280 281 282 282 283 284 285 287 288 284 283 285 285 285 284 285 284 285 286
277 277 276 275 274 274 273 272 272 271 270 271 272 273 273 275 277 278 278 278 279 280 281 282 282 282 284 286 286 283 283 284 284 284 284 283 283 283
279 278 277 276 275 274 273 272 271 271 270 270 271 272 272 273 275 276 277 276 277 278 279 280 280 280 280 281 284 284 282 282 282 282 283 283 283 283
279 278 277 276 275 274 273 272 272 272 271 271 270 271 271 272 273 274 275 276 276 276 277 278 279 281 282 283 283 283 282 281 281 281 280 281 283 285
280 279 278 277 276 275 274 273 272 272 271 270 270 271 271 271 272 273 274 275 275 275 276 277 278 279 281 281 281 282 281 281 282 282 281 281 280 280
Wind_Speed
12 12 12 13 12 10 11 11 15 14 15 31 31 27 29 31 29 25 22 19 16 12 11 9 8 9 12 17 14 9 6 9 11 19 18 20 20 16
13 13 14 12 11 12 13 15 17 21 15 28 31 31 29 29 27 27 23 19 13 11 10 10 11 10 11 13 20 19 12 7 6 11 18 22 20 16
13 12 13 12 14 16 17 19 20 21 20 33 29 29 29 27 26 25 22 19 14 12 11 11 13 11 10 12 15 19 22 17 14 9 16 20 19 18
11 11 13 14 18 19 20 21 21 22 23 29 28 26 24 24 24 24 21 16 14 15 14 11 10 11 11 11 13 21 17 15 20 19 15 19 18 18
9 11 15 17 20 22 22 24 22 22 21 23 28 27 25 22 22 19 18 17 13 13 14 12 8 10 12 12 10 16 21 16 17 20 20 20 22 23
10 14 16 18 20 22 23 21 22 20 22 23 25 24 23 22 18 19 19 16 13 11 12 12 7 7 10 11 9 14 15 16 17 14 20 19 21 21
15 16 16 17 19 20 20 21 22 22 21 21 22 21 20 18 15 11 15 17 14 12 11 10 9 8 7 8 9 11 13 16 19 24 20 17 13 13
15 17 18 16 15 17 18 18 19 21 22 22 22 19 21 19 18 13 10 10 9 4 6 7 7 9 8 7 7 9 11 17 18 23 21 14 14 19
15 16 16 15 16 16 17 20 20 18 20 22 22 20 18 17 18 18 14 13 16 14 11 13 9 10 9 9 5 3 3 20 16 15 19 20 21 18
13 14 15 16 15 17 21 20 18 18 18 18 19 19 19 19 18 17 18 17 18 18 14 15 13 12 9 8 10 6 5 13 15 17 19 18 17 16
13 14 14 15 16 19 20 19 19 20 15 16 19 19 19 18 18 18 18 15 14 16 15 14 16 14 10 8 10 13 10 9 14 13 13 15 15 15
14 14 13 14 17 19 19 18 19 19 21 19 17 15 14 15 16 17 18 17 13 9 10 10 9 7 4 3 5 11 18 17 17 15 14 12 13 10
14 14 13 15 18 18 16 14 17 20 18 16 16 15 13 13 12 11 13 18 19 17 7 7 5 6 4 1 2 3 7 12 13 14 18 18 18 16
13 13 14 17 17 15 13 14 15 14 14 14 14 13 12 12 11 11 11 12 17 21 16 14 13 10 8 7 6 1 3 6 10 13 12 13 18 20
11 13 14 15 15 12 12 13 12 12 13 14 14 14 14 14 13 12 11 11 12 13 15 17 17 16 14 12 11 9 6 5 7 10 10 9 11 13
12 12 11 12 12 11 11 11 11 11 10 12 14 15 14 13 11 8 7 7 10 10 13 15 16 16 14 13 11 10 9 6 8 10 8 9 11 14
13 9 9 10 12 12 11 11 12 12 11 12 14 15 14 14 14 13 9 3 7 3 6 10 17 18 16 13 12 12 11 11 11 7 7 8 11 13
9 9 9 9 10 12 12 12 11 13 12 12 12 13 14 14 14 14 13 11 9 7 6 4 4 8 9 11 14 7 10 9 9 9 9 9 12 14
8 9 8 8 9 10 11 11 12 12 12 10 11 12 13 12 12 13 12 12 10 8 7 7 7 4 4 4 5 12 8 7 8 8 9 11 9 8
9 9 8 8 9 9 9 10 11 11 11 10 10 10 11 11 11 11 11 11 10 8 7 5 5 6 7 4 2 2 6 6 6 5 5 6 7 8
11 9 8 8 8 8 8 8 9 9 10 10 9 10 10 10 10 10 10 10 10 9 8 7 7 6 4 1 2 2 2 5 5 4 3 5 5 4
13 11 9 9 8 8 8 8 7 8 8 8 8 8 9 9 9 9 9 9 10 10 10 8 7 4 3 4 1 1 1 3 4 4 5 3 1 2
15 13 11 11 11 10 8 7 7 7 7 7 8 7 8 8 8 7 8 7 8 10 10 8 6 4 3 3 2 1 1 3 4 4 2 3 2 1
Wind_Direction
282 285 284 294 288 281 284 285 292 297 298 303 301 298 295 294 293 291 294 295 324 315 319 313 303 290 270 255 244 230 202 198 213 214 214 207 192 202
285 286 283 285 281 282 288 289 288 290 294 296 299 299 297 293 286 285 282 283 313 323 311 322 328 321 298 269 254 242 235 227 197 206 209 203 198 202
285 284 281 282 285 289 291 293 291 291 291 295 297 300 299 295 290 280 272 269 268 322 327 319 316 324 307 290 265 251 241 243 223 199 197 195 189 187
289 287 285 291 293 296 298 296 293 293 291 291 298 299 305 305 292 284 263 261 265 267 302 327 330 316 322 315 265 247 241 212 223 212 208 192 172 172
296 293 297 300 300 302 300 297 295 295 292 288 295 295 291 301 305 277 279 267 271 274 275 289 312 328 326 328 276 221 214 195 196 185 188 175 171 174
301 303 305 303 302 303 301 295 298 294 293 290 289 292 292 292 308 283 268 267 269 271 278 271 283 314 322 320 308 226 208 208 211 177 161 166 169 172
310 312 309 305 304 301 299 299 300 296 292 290 289 291 290 299 295 312 295 272 272 280 282 276 275 285 311 329 341 243 217 203 200 195 184 164 159 155
317 316 314 316 314 309 304 300 294 294 291 294 297 283 287 285 291 282 290 300 282 263 290 287 303 290 286 317 321 334 197 185 199 196 186 173 195 197
320 320 321 319 319 317 312 304 301 301 291 294 281 284 292 294 296 289 282 275 274 278 301 294 293 288 282 283 285 347 176 187 181 188 186 180 177 180
324 322 319 319 320 320 315 315 314 314 307 298 285 278 280 284 281 281 284 278 274 271 270 276 279 280 280 265 238 240 142 141 178 196 201 183 180 183
327 323 321 319 322 323 323 319 320 316 312 311 300 293 281 278 277 278 278 240 258 266 255 261 267 272 273 264 245 218 199 191 156 159 161 159 160 167
327 325 325 325 323 329 325 320 318 323 321 316 312 306 291 283 275 264 261 265 277 247 247 231 257 241 244 221 225 221 212 210 201 210 213 197 190 190
327 328 329 331 329 328 327 323 322 323 319 316 310 305 298 291 284 270 254 244 247 254 243 219 238 195 232 236 163 119 197 216 216 222 224 224 225 218
323 324 325 328 330 328 331 326 325 329 325 323 320 317 311 301 293 279 260 248 240 243 243 234 251 259 259 260 262 269 187 199 201 210 215 220 226 230
317 317 319 328 333 334 332 336 343 341 333 330 328 324 318 307 295 280 263 242 242 241 238 235 236 242 245 249 243 234 240 223 212 215 216 217 220 220
324 324 326 332 340 340 344 345 347 344 337 333 330 328 331 337 334 329 264 231 229 235 232 228 226 227 230 228 227 229 221 221 211 210 215 224 227 224
329 330 335 341 344 348 347 349 350 352 352 347 345 345 347 353 355 358 359 296 224 237 236 227 230 228 226 223 217 222 218 219 225 217 212 226 228 223
324 329 332 337 338 340 343 346 350 352 349 350 349 350 351 355 358 5 13 22 39 40 40 19 186 190 207 224 224 231 201 205 209 206 216 230 239 231
304 317 319 328 328 329 335 340 341 343 345 347 352 351 352 354 1 8 11 14 15 16 20 18 16 281 209 189 140 217 238 210 208 217 222 223 237 230
278 292 306 314 318 319 327 331 335 340 345 346 349 353 354 354 358 3 8 4 358 356 356 1 9 7 3 30 83 135 203 204 211 211 216 225 238 237
275 276 284 293 301 309 311 320 326 333 338 343 344 350 354 356 352 353 351 354 353 354 347 348 336 323 293 255 207 163 212 217 209 210 205 221 213 205
265 266 272 276 285 295 302 310 316 325 334 339 341 342 347 351 348 345 348 347 351 344 334 328 334 324 235 240 153 130 200 184 181 174 165 155 205 189
263 261 261 269 278 286 293 294 302 306 322 328 332 338 341 345 348 344 345 346 347 347 347 345 351 7 45 48 39 37 137 165 170 182 173 205 194 197